{"data":{"norad_id":67116,"intl_designator":"2025-299Q","name":"STARLINK-35738","alt_names":[],"object_type":"PAYLOAD","status":"ACTIVE","operator":null,"country":"US","launch_date":"2025-12-15","launch_site_code":"AFETR","launch_vehicle":null,"mission":null,"orbit_class":"UNKNOWN","rcs_meters":null,"size_class":null,"mass_kg":null,"dimensions":null,"purposes":["comms"],"wikipedia_slug":null,"has_3d_model":false,"image_url":null,"decayed_at":null,"tle_current":{"epoch":"2026-05-25T03:31:44.262048Z","epoch_age_seconds":58465,"freshness":"FRESH","line1":"1 67116U 25299Q   26145.14704007  .00016682  00000+0  61418-3 0  9994","line2":"2 67116  42.9974  96.8346 0000398 206.4698 153.6134 15.27589552 24816","mean_motion":15.27589552,"eccentricity":3.98e-5,"inclination_deg":42.9974,"raan_deg":96.8346,"arg_perigee_deg":206.4698,"mean_anomaly_deg":153.6134,"bstar":0.00061418,"rev_number":2481,"period_min":94.26615926475,"perigee_km":482.74741999612,"apogee_km":483.29356813264,"semimajor_km":6861.1574940644,"source":"CELESTRAK","updated_at":"2026-05-25T13:38:21.475749Z"}}}